Vorticity
4 3 7 5 5 3 3 3 3 3 3 3 4 4 3 4 3 4 4 4 4 4 4 3 3 3 3 3 5 6 7 7 7 5 4 4 4 5 7 4 6 7 5
4 5 6 5 5 4 4 4 4 3 3 3 2 3 3 4 3 4 4 4 4 4 4 4 4 4 4 4 4 3 6 7 8 6 4 4 4 4 5 5 5 6 6
5 4 5 5 6 6 5 4 3 4 4 3 3 2 3 3 3 3 4 4 5 5 4 4 4 4 4 3 4 4 4 5 -1 16 4 5 5 5 5 4 4 5 5
6 3 5 6 7 7 6 5 4 3 4 3 3 3 2 3 3 2 3 4 4 5 5 5 5 5 4 4 3 4 4 4 4 8 4 5 6 4 7 6 5 5 5
10 5 3 8 8 6 7 6 4 4 4 4 4 4 3 2 3 2 3 4 4 4 5 5 5 5 5 5 4 3 4 4 5 5 6 7 5 2 2 7 5 5 5
2 4 6 7 11 7 5 7 5 4 5 5 4 3 4 3 3 3 3 3 3 4 4 5 5 4 4 4 5 5 5 5 5 9 0 1 5 4 2 3 5 4 4
5 4 4 6 11 11 6 7 6 4 6 4 4 5 4 4 4 3 4 3 3 3 3 4 5 4 4 4 5 4 4 6 6 3 3 5 3 5 4 4 4 4 4
6 5 3 5 12 10 8 6 5 5 5 5 6 4 4 4 4 4 4 4 4 3 4 3 3 5 4 3 4 4 4 4 4 5 5 4 8 4 4 3 3 3 3
6 7 3 6 11 9 8 6 6 5 4 5 4 5 4 4 4 4 4 5 5 5 4 4 3 3 4 4 4 4 4 4 3 3 4 5 4 9 6 3 3 4 4
3 7 4 5 9 8 9 7 6 4 8 1 6 5 6 6 6 5 4 4 4 4 5 5 4 4 4 4 4 4 4 3 3 2 2 3 5 6 2 5 6 3 3
6 9 6 5 10 11 9 7 7 6 7 6 7 7 6 5 6 4 4 5 6 6 6 6 6 5 4 4 4 5 4 3 2 3 2 5 4 3 4 4 7 5 4
9 4 12 6 7 9 9 8 7 7 7 7 7 7 7 6 4 5 8 8 9 7 7 7 7 6 6 6 5 4 5 4 4 3 4 4 4 5 5 4 2 9 5
4 4 18 7 6 7 8 8 8 7 6 7 8 8 6 5 6 8 6 6 6 7 9 10 9 8 8 6 6 6 5 5 5 5 4 3 5 3 4 6 9 0 -0
7 8 12 9 5 7 6 8 7 7 7 8 7 7 5 7 5 5 5 5 8 11 14 14 14 12 11 8 7 7 9 6 6 8 5 5 5 5 4 5 3 -3 -12
9 4 9 6 6 7 6 6 6 7 8 8 5 4 6 6 5 5 8 9 10 11 13 12 12 14 15 13 9 7 6 3 6 5 4 4 3 5 2 2 2 6 15
8 7 6 10 8 8 6 6 6 6 7 5 5 5 4 5 5 7 9 9 9 8 9 11 12 12 13 14 12 17 11 5 4 6 9 7 10 0 17 4 7 11 8
4 4 3 9 9 15 8 6 6 6 5 4 5 4 5 6 5 4 8 8 9 11 10 11 11 11 10 17 10 14 11 13 5 12 7 6 3 8 2 14 10 6 12
2 6 -2 4 -1 24 16 6 7 6 4 4 5 3 3 4 4 4 6 8 7 7 8 10 10 10 10 11 10 7 14 10 10 14 9 11 11 11 11 11 12 11 9
9 1 7 5 20 34 14 18 9 7 4 4 5 2 2 3 3 3 6 8 6 7 7 9 9 10 10 11 9 9 9 10 10 10 9 10 10 11 12 11 9 8 7
5 5 5 4 -1 29 14 8 6 21 12 5 5 4 3 3 3 4 7 6 7 5 6 8 10 11 11 10 9 9 10 10 9 10 10 10 9 8 8 7 6 7 7
13 10 3 0 4 -3 3 8 16 13 15 18 13 7 4 3 3 3 6 8 6 6 5 7 8 11 11 10 9 10 9 8 7 7 7 8 7 6 7 7 6 6 6
12 10 4 2 1 5 3 5 8 6 6 9 16 16 12 10 7 4 4 6 7 5 7 6 7 10 10 9 8 9 6 7 8 7 7 7 7 6 6 6 7 6 7
15 8 2 5 4 2 -4 -4 12 4 4 4 4 6 8 9 8 7 5 4 6 7 7 7 6 8 9 8 8 8 6 7 12 11 10 7 6 8 8 7 6 8 8
16 2 6 5 5 2 9 26 5 7 4 7 4 4 7 7 8 10 8 7 7 7 6 6 6 7 7 7 7 7 7 8 6 4 6 6 8 7 7 7 6 8 8
22 19 12 8 8 11 17 16 17 14 4 4 10 12 10 15 15 8 8 7 9 7 7 6 7 7 8 6 6 7 7 6 5 5 6 6 7 6 6 7 8 8 7
26 26 17 14 19 7 7 7 5 8 9 9 9 9 10 12 15 18 17 13 8 9 6 7 7 7 7 7 8 7 6 5 6 6 7 6 5 6 7 9 10 8 8
Height
3173 3173 3174 3177 3178 3180 3181 3181 3182 3182 3182 3183 3183 3183 3182 3182 3182 3182 3182 3182 3181 3180 3180 3179 3179 3178 3177 3176 3174 3173 3172 3172 3172 3172 3172 3172 3172 3172 3173 3173 3173 3173 3173
3173 3173 3173 3176 3177 3179 3181 3182 3182 3182 3182 3182 3183 3183 3183 3183 3183 3183 3183 3182 3182 3182 3181 3179 3179 3178 3178 3178 3177 3175 3175 3174 3173 3173 3173 3173 3173 3174 3174 3174 3175 3175 3175
3173 3174 3173 3175 3176 3178 3180 3181 3182 3182 3182 3183 3183 3183 3183 3183 3182 3182 3183 3183 3183 3182 3181 3180 3179 3179 3178 3178 3178 3178 3177 3176 3176 3175 3175 3175 3175 3175 3176 3176 3176 3177 3177
3173 3174 3175 3176 3176 3177 3179 3180 3181 3182 3182 3183 3183 3183 3183 3183 3183 3182 3183 3183 3183 3183 3182 3181 3180 3180 3180 3179 3179 3178 3178 3178 3178 3178 3178 3177 3177 3177 3177 3177 3178 3177 3178
3173 3173 3174 3175 3177 3177 3178 3180 3181 3181 3182 3182 3183 3183 3183 3183 3183 3183 3183 3183 3183 3183 3183 3182 3180 3180 3181 3180 3180 3179 3180 3180 3180 3180 3179 3178 3178 3177 3177 3177 3178 3178 3178
3171 3171 3173 3174 3175 3177 3177 3178 3180 3181 3181 3182 3182 3182 3182 3183 3183 3182 3182 3183 3183 3183 3182 3182 3181 3180 3180 3180 3180 3179 3180 3181 3181 3181 3180 3179 3179 3179 3178 3177 3178 3179 3179
3169 3170 3171 3173 3174 3175 3176 3177 3178 3179 3180 3181 3181 3181 3182 3181 3182 3182 3181 3182 3182 3182 3182 3182 3181 3180 3179 3179 3179 3179 3179 3179 3180 3180 3180 3179 3179 3179 3179 3178 3179 3179 3179
3168 3169 3170 3171 3172 3173 3175 3176 3176 3177 3178 3179 3180 3180 3180 3180 3181 3180 3180 3181 3181 3181 3181 3180 3180 3180 3178 3178 3177 3178 3178 3178 3178 3179 3179 3179 3179 3178 3178 3178 3178 3179 3179
3167 3167 3168 3169 3169 3171 3172 3174 3175 3175 3176 3177 3178 3178 3179 3179 3179 3179 3178 3179 3179 3179 3179 3179 3179 3178 3178 3177 3176 3176 3176 3176 3176 3177 3177 3178 3178 3177 3176 3177 3177 3177 3177
3164 3165 3165 3166 3167 3168 3170 3171 3172 3173 3174 3175 3175 3176 3177 3177 3177 3177 3177 3176 3176 3176 3176 3176 3176 3176 3176 3175 3175 3175 3174 3173 3174 3174 3174 3175 3176 3176 3176 3176 3176 3176 3176
3162 3163 3163 3164 3164 3165 3167 3168 3169 3170 3171 3172 3173 3174 3174 3175 3175 3175 3174 3174 3173 3172 3172 3172 3172 3172 3172 3172 3172 3173 3172 3171 3170 3171 3172 3173 3173 3174 3175 3174 3174 3174 3174
3160 3160 3161 3161 3162 3162 3163 3165 3165 3166 3167 3169 3171 3171 3172 3172 3172 3172 3171 3171 3170 3169 3168 3167 3167 3167 3168 3168 3169 3168 3168 3168 3168 3168 3169 3170 3171 3172 3171 3171 3172 3171 3172
3157 3157 3158 3159 3159 3159 3160 3160 3161 3162 3164 3166 3167 3168 3168 3169 3169 3169 3168 3167 3166 3164 3163 3162 3162 3162 3162 3163 3164 3164 3164 3164 3166 3166 3167 3167 3168 3168 3168 3168 3168 3168 3168
3153 3155 3155 3156 3157 3157 3157 3157 3158 3159 3161 3162 3163 3163 3164 3164 3164 3165 3164 3163 3161 3160 3158 3157 3156 3156 3157 3157 3158 3159 3159 3159 3161 3162 3163 3163 3164 3165 3164 3165 3165 3165 3164
3149 3150 3151 3152 3153 3154 3154 3154 3155 3156 3157 3158 3159 3159 3160 3160 3160 3160 3160 3159 3157 3155 3153 3152 3151 3151 3151 3151 3152 3153 3153 3154 3155 3156 3157 3158 3159 3160 3159 3159 3160 3159 3159
3145 3147 3148 3148 3149 3149 3150 3151 3152 3153 3153 3154 3155 3156 3156 3156 3156 3156 3155 3154 3153 3152 3149 3147 3146 3146 3145 3146 3146 3147 3148 3149 3149 3150 3151 3151 3152 3153 3154 3153 3153 3153 3152
3143 3143 3143 3144 3144 3145 3146 3147 3148 3149 3149 3150 3151 3152 3153 3153 3152 3152 3151 3150 3150 3148 3146 3145 3143 3142 3142 3141 3141 3141 3143 3143 3144 3144 3144 3146 3145 3146 3147 3147 3146 3147 3147
3137 3139 3139 3140 3140 3138 3139 3142 3144 3145 3145 3146 3147 3148 3148 3149 3148 3147 3146 3146 3145 3144 3143 3141 3139 3138 3138 3137 3136 3136 3137 3139 3139 3140 3139 3139 3140 3141 3142 3142 3142 3142 3141
3131 3133 3135 3135 3134 3134 3136 3139 3140 3142 3143 3143 3143 3144 3144 3144 3144 3143 3142 3142 3140 3140 3138 3137 3135 3134 3134 3133 3132 3132 3133 3133 3134 3134 3135 3135 3136 3137 3138 3138 3138 3138 3137
3126 3129 3130 3130 3131 3131 3133 3135 3136 3137 3138 3140 3139 3139 3139 3140 3140 3139 3138 3137 3137 3136 3135 3134 3133 3130 3129 3128 3127 3127 3128 3128 3128 3129 3129 3131 3131 3132 3133 3133 3134 3133 3133
3121 3125 3125 3127 3128 3129 3129 3129 3130 3129 3131 3133 3134 3134 3135 3135 3135 3134 3133 3133 3132 3131 3130 3131 3129 3129 3126 3124 3124 3124 3123 3124 3123 3124 3125 3126 3127 3127 3128 3129 3129 3128 3128
3115 3118 3120 3122 3122 3124 3125 3124 3124 3125 3126 3128 3129 3128 3127 3128 3128 3127 3127 3127 3127 3126 3125 3125 3125 3124 3123 3122 3121 3121 3120 3121 3120 3120 3120 3121 3122 3122 3123 3124 3124 3124 3124
3107 3113 3115 3117 3117 3117 3116 3116 3118 3120 3122 3123 3123 3122 3120 3120 3120 3120 3119 3119 3120 3120 3120 3120 3120 3119 3119 3117 3117 3117 3116 3117 3117 3117 3117 3117 3118 3118 3118 3118 3118 3118 3118
3101 3107 3110 3111 3112 3112 3111 3108 3111 3112 3114 3116 3116 3116 3114 3113 3112 3111 3110 3110 3111 3112 3113 3113 3113 3114 3113 3113 3112 3112 3112 3113 3112 3112 3112 3112 3112 3113 3113 3113 3113 3112 3112
3096 3099 3104 3106 3108 3108 3107 3105 3107 3109 3109 3109 3109 3108 3106 3104 3102 3102 3101 3101 3102 3103 3104 3105 3105 3106 3107 3107 3106 3107 3107 3106 3107 3107 3106 3106 3106 3106 3106 3107 3108 3107 3106
3092 3095 3100 3102 3102 3102 3102 3103 3103 3104 3103 3102 3101 3102 3100 3097 3094 3093 3093 3093 3094 3095 3096 3096 3097 3098 3099 3099 3100 3100 3100 3100 3101 3101 3101 3101 3100 3100 3100 3100 3101 3101 3100